Weather reports worldwide

Advertisment
Palermo/Punta Raisi, Italy (16405): temperature & dewpoint: 15.02.2019 22:00:00 - 21.02.2019 22:00:00 (CET)Palermo/Punta Raisi, Italy (16405): wind speed: 15.02.2019 22:00:00 - 21.02.2019 22:00:00 (CET)Palermo/Punta Raisi, Italy (16405): wind direction: 15.02.2019 22:00:00 - 21.02.2019 22:00:00 (CET)Palermo/Punta Raisi, Italy (16405): reduced air pressure: 15.02.2019 22:00:00 - 21.02.2019 22:00:00 (CET)Palermo/Punta Raisi, Italy (16405): visibility: 15.02.2019 22:00:00 - 21.02.2019 22:00:00 (CET)Palermo/Punta Raisi, Italy (16405): precipitation: 15.02.2019 22:00:00 - 21.02.2019 22:00:00 (CET)
Date & Time tt [°C] td [°C] ff [km/h] ff [kn] dd ppp [hPa] vv [km] rr [mm]
21.02.2019 22:00:00 - - - - - - - -
21.02.2019 21:00:00 12,0 7,0 8 4 ENE - 10 -
21.02.2019 20:00:00 12,0 7,0 9 5 ENE - 10 -
21.02.2019 19:00:00 11,9 6,7 8 4 E 1028,0 10 -
21.02.2019 18:00:00 12,0 6,0 8 4 ENE - 10 -
21.02.2019 17:00:00 13,0 5,0 13 7 NE - 10 -
21.02.2019 16:00:00 13,3 6,3 18 10 NNE 1027,6 10 0,0
21.02.2019 15:00:00 13,0 6,0 21 11 NNE - 10 -
21.02.2019 14:00:00 14,0 5,0 22 12 NE - 10 -
21.02.2019 13:00:00 14,3 4,6 13 7 E 1027,8 10 -
21.02.2019 12:00:00 13,0 5,0 22 12 ENE - 10 -
21.02.2019 11:00:00 13,0 5,0 21 11 E - 10 -
21.02.2019 10:00:00 12,9 4,8 21 11 E 1028,2 10 0,0
21.02.2019 09:00:00 11,0 5,0 16 9 E - 10 -
21.02.2019 08:00:00 10,0 5,0 16 9 E - 10 -
21.02.2019 07:00:00 9,8 4,9 16 9 E 1026,7 10 -
21.02.2019 06:00:00 10,0 6,0 16 9 E - 10 -
21.02.2019 05:00:00 10,0 6,0 16 9 ENE - 10 -
21.02.2019 04:00:00 9,6 5,6 18 10 E 1026,0 10 0,0
21.02.2019 03:00:00 9,0 6,0 16 9 ENE - 10 -
21.02.2019 02:00:00 8,0 5,0 8 4 ESE - 10 -
21.02.2019 01:00:00 8,1 5,3 8 4 ESE 1025,8 10 -
21.02.2019 00:00:00 9,0 5,0 9 5 E - 10 -
20.02.2019 23:00:00 10,0 6,0 16 9 ENE - 10 -
20.02.2019 22:00:00 10,5 6,3 16 9 ENE 1025,5 10 0,0
20.02.2019 21:00:00 11,0 6,0 18 10 ENE - 10 -
20.02.2019 20:00:00 11,0 7,0 21 11 ENE - 10 -
20.02.2019 19:00:00 11,3 6,7 22 12 ENE 1024,4 10 -
20.02.2019 18:00:00 12,0 7,0 26 14 ENE - 10 -
20.02.2019 17:00:00 13,0 8,0 28 15 ENE - 10 -
20.02.2019 16:00:00 13,2 7,7 28 15 ENE 1023,8 10 0,0
20.02.2019 15:00:00 13,0 8,0 26 14 ENE - 10 -
20.02.2019 14:00:00 14,0 8,0 26 14 ENE - 10 -
20.02.2019 13:00:00 13,8 8,8 24 13 NE 1024,1 10 -
20.02.2019 12:00:00 13,0 8,0 15 8 NE - 10 -
20.02.2019 11:00:00 12,0 8,0 5 3 NW - 10 -
20.02.2019 10:00:00 11,6 7,1 4 2 W 1024,4 10 0,0
20.02.2019 09:00:00 10,0 7,0 2 1 - - 10 -
20.02.2019 08:00:00 8,0 5,0 5 3 S - 10 -
20.02.2019 07:00:00 9,2 6,7 8 4 SW 1023,0 10 -
20.02.2019 06:00:00 8,0 5,0 8 4 SSE - 10 -
20.02.2019 05:00:00 9,0 5,0 11 6 ESE - 10 -
20.02.2019 04:00:00 9,4 5,4 11 6 ENE 1023,1 10 0,0
20.02.2019 03:00:00 9,0 6,0 8 4 SE - 10 -
20.02.2019 02:00:00 10,0 6,0 4 2 - - 10 -
20.02.2019 01:00:00 8,2 5,0 4 2 SSE 1023,3 10 -
20.02.2019 00:00:00 9,0 5,0 8 4 S - 10 -
19.02.2019 23:00:00 11,0 6,0 8 4 E - 10 -
19.02.2019 22:00:00 10,6 5,9 5 3 SSW 1023,3 10 0,0
19.02.2019 21:00:00 11,0 6,0 5 3 S - 10 -
19.02.2019 20:00:00 11,0 6,0 8 4 ESE - 10 -
19.02.2019 19:00:00 11,2 5,8 16 9 E 1022,4 10 -
19.02.2019 18:00:00 12,0 6,0 22 12 ENE - 10 -
19.02.2019 17:00:00 13,0 6,0 22 12 ENE - 10 -
19.02.2019 16:00:00 13,8 6,7 26 14 ENE 1022,5 10 0,0
19.02.2019 15:00:00 14,0 6,0 22 12 ENE - 10 -
19.02.2019 14:00:00 14,0 7,0 16 9 ENE - 10 -
19.02.2019 13:00:00 13,1 6,2 11 6 NE 1023,8 15 -
19.02.2019 12:00:00 12,0 6,0 11 6 NE - 10 -
19.02.2019 11:00:00 12,0 7,0 8 4 NNE - 10 -
19.02.2019 10:00:00 11,5 6,0 2 1 - 1024,6 10 0,0
19.02.2019 09:00:00 10,0 7,0 5 3 SW - 10 -
19.02.2019 08:00:00 8,0 4,0 9 5 SSE - 10 -
19.02.2019 07:00:00 7,5 4,7 9 5 SSW 1023,7 10 -
19.02.2019 06:00:00 8,0 5,0 5 3 S - 10 -
19.02.2019 05:00:00 8,0 3,0 4 2 ESE - 10 -
19.02.2019 04:00:00 7,4 3,8 5 3 SSE 1023,5 10 0,0
19.02.2019 03:00:00 8,0 4,0 5 3 SSW - 10 -
19.02.2019 02:00:00 8,0 4,0 5 3 SSE - 10 -
19.02.2019 01:00:00 9,5 5,2 8 4 SE 1024,8 10 -
19.02.2019 00:00:00 10,0 6,0 5 3 S - 10 -
18.02.2019 23:00:00 11,0 7,0 5 3 S - 10 -
18.02.2019 22:00:00 11,0 6,8 8 4 S 1025,1 10 0,0
18.02.2019 21:00:00 11,0 6,0 4 2 S - 10 -
18.02.2019 20:00:00 11,0 6,0 8 4 SSE - 10 -
18.02.2019 19:00:00 10,9 6,7 9 5 E 1024,6 10 -
18.02.2019 18:00:00 12,0 7,0 15 8 ENE - 10 -
18.02.2019 17:00:00 13,0 7,0 21 11 ENE - 10 -
18.02.2019 16:00:00 13,2 6,6 22 12 ENE 1024,4 10 0,0
18.02.2019 15:00:00 13,0 6,0 21 11 NE - 10 -
18.02.2019 14:00:00 13,0 6,0 15 8 NE - 10 -
18.02.2019 13:00:00 13,2 6,2 8 4 NNW 1026,4 10 -
18.02.2019 12:00:00 12,0 6,0 11 6 W - 10 -
18.02.2019 11:00:00 12,0 5,0 13 7 WSW - 10 -
18.02.2019 10:00:00 11,6 5,3 13 7 SW 1027,6 10 0,0
18.02.2019 09:00:00 9,0 6,0 5 3 S - 10 -
18.02.2019 08:00:00 5,0 2,0 8 4 SSW - 10 -
18.02.2019 07:00:00 6,5 3,5 8 4 S 1027,2 10 -
18.02.2019 06:00:00 7,0 3,0 5 3 S - - -
18.02.2019 05:00:00 7,0 3,0 5 3 S - 10 -
18.02.2019 04:00:00 6,9 3,7 4 2 S 1027,0 10 0,0
18.02.2019 03:00:00 8,0 5,0 4 2 S - 10 -
18.02.2019 02:00:00 8,0 3,0 4 2 S - 10 -
18.02.2019 01:00:00 8,2 4,2 8 4 SE 1028,1 10 -
18.02.2019 00:00:00 7,0 3,0 4 2 SSE - 10 -
17.02.2019 23:00:00 9,0 4,0 5 3 E - 10 -
17.02.2019 22:00:00 9,3 3,9 5 3 SSE 1028,8 10 0,0
17.02.2019 21:00:00 10,0 3,0 8 4 E - 10 -
17.02.2019 20:00:00 11,0 4,0 21 11 E - 10 -
17.02.2019 19:00:00 10,9 4,9 21 11 ENE 1028,2 10 -
17.02.2019 18:00:00 11,0 6,0 18 10 ENE - 10 -
17.02.2019 17:00:00 13,0 6,0 22 12 ENE - 10 -
17.02.2019 16:00:00 12,9 6,9 22 12 NE 1028,6 10 0,0
17.02.2019 15:00:00 13,0 7,0 21 11 NNE - 10 -
17.02.2019 14:00:00 13,0 5,0 16 9 NE - 10 -
17.02.2019 13:00:00 12,7 5,3 16 9 NNE 1029,6 10 -
17.02.2019 12:00:00 13,0 5,0 15 8 NNE - 10 -
17.02.2019 11:00:00 - - - - - - - -
17.02.2019 10:00:00 11,3 4,3 9 5 SW 1030,9 10 0,0
17.02.2019 09:00:00 10,0 5,0 5 3 S - 10 -
17.02.2019 08:00:00 7,0 3,0 9 5 SSW - 10 -
17.02.2019 07:00:00 8,2 3,7 8 4 SSW 1030,1 10 -
17.02.2019 06:00:00 7,0 3,0 8 4 S - 10 -
17.02.2019 05:00:00 8,0 4,0 5 3 SSW - 10 -
17.02.2019 04:00:00 8,0 3,4 5 3 SSE 1029,4 10 0,0
17.02.2019 03:00:00 7,0 3,0 8 4 E - 10 -
17.02.2019 02:00:00 8,0 3,0 5 3 E - 10 -
17.02.2019 01:00:00 8,0 2,7 11 6 ENE 1030,0 10 -
17.02.2019 00:00:00 9,0 3,0 11 6 E - 10 -
16.02.2019 23:00:00 11,0 3,0 15 8 ENE - 10 -
16.02.2019 22:00:00 11,7 3,6 16 9 NE 1030,4 10 0,0
16.02.2019 21:00:00 12,0 4,0 21 11 NE - 10 -
16.02.2019 20:00:00 12,0 4,0 22 12 NNE - 10 -
16.02.2019 19:00:00 12,1 3,5 21 11 NE 1029,6 10 -
16.02.2019 18:00:00 12,0 4,0 16 9 NE - 10 -
16.02.2019 17:00:00 12,0 4,0 21 11 NNE - 10 -
16.02.2019 16:00:00 12,7 4,3 21 11 NNE 1029,1 10 0,0
16.02.2019 15:00:00 13,0 3,0 21 11 NE - 10 -
16.02.2019 14:00:00 13,0 3,0 22 12 NE - 10 -
16.02.2019 13:00:00 13,3 2,2 18 10 ENE 1029,4 10 -
16.02.2019 12:00:00 13,0 2,0 24 13 NE - 10 -
16.02.2019 11:00:00 12,0 1,0 26 14 ENE - 10 -
16.02.2019 10:00:00 12,6 2,2 26 14 ENE 1029,0 10 0,0
16.02.2019 09:00:00 12,0 2,0 26 14 ENE - 10 -
16.02.2019 08:00:00 11,0 2,0 31 17 ENE - 10 -
16.02.2019 07:00:00 10,7 0,7 31 17 ENE 1026,8 10 -
16.02.2019 06:00:00 11,0 0,0 37 20 ENE - 10 -
16.02.2019 05:00:00 11,0 2,0 29 16 E - 10 -
16.02.2019 04:00:00 10,7 1,9 31 17 ENE 1025,8 10 0,0
16.02.2019 03:00:00 11,0 3,0 29 16 ENE - 10 -
16.02.2019 02:00:00 10,0 5,0 29 16 ENE - 10 -
16.02.2019 01:00:00 9,7 5,3 28 15 ENE 1025,4 10 -
16.02.2019 00:00:00 11,0 5,0 34 18 E - 10 -
15.02.2019 23:00:00 10,0 5,0 31 17 ENE - 10 -
15.02.2019 22:00:00 10,7 5,4 26 14 ENE 1024,9 10 0,0

tt = temperature
td = dewpoint
ff = wind speed
dd = wind direction
ppp = reduced air pressure
vv = visibility
rr = precipitation

Next stations